This is the latest recevied weather packets stored in our database for station/object SR6WXJG. If no packets are shown the sender has not sent any weather packets the latest 10 day(s).
| Time | Temp. | Humidity | Pressure | Rain* | Wind** | Luminosity | Snow |
|---|---|---|---|---|---|---|---|
| 1777591090 | 5.56° C | 65% | 1030 hPa | 0 mm | - | - | - |
| 1777590189 | 5.56° C | 67% | 1030 hPa | 0 mm | - | - | - |
| 1777589289 | 5.56° C | 66% | 1030 hPa | 0 mm | - | - | - |
| 1777588389 | 5.56° C | 67% | 1030 hPa | 0 mm | - | - | - |
| 1777587488 | 6.11° C | 62% | 1030 hPa | 0 mm | - | - | - |
| 1777586588 | 6.11° C | 63% | 1030 hPa | 0 mm | - | - | - |
| 1777585688 | 6.67° C | 62% | 1030 hPa | 0 mm | - | - | - |
| 1777584787 | 6.67° C | 62% | 1030 hPa | 0 mm | - | - | - |
| 1777583887 | 7.22° C | 56% | 1030 hPa | 0 mm | - | - | - |
| 1777582987 | 7.22° C | 58% | 1030 hPa | 0 mm | - | - | - |
| 1777582086 | 7.22° C | 58% | 1030 hPa | 0 mm | - | - | - |
| 1777581186 | 7.78° C | 57% | 1030 hPa | 0 mm | - | - | - |
| 1777580286 | 8.33° C | 51% | 1030 hPa | 0 mm | - | - | - |
| 1777579385 | 8.33° C | 53% | 1030 hPa | 0 mm | - | - | - |
| 1777578485 | 8.33° C | 52% | 1030 hPa | 0 mm | - | - | - |
| 1777577585 | 8.89° C | 52% | 1030 hPa | 0 mm | - | - | - |
| 1777576685 | 10° C | 49% | 1029 hPa | 0 mm | - | - | - |
| 1777575784 | 10° C | 49% | 1029 hPa | 0 mm | - | - | - |
| 1777574884 | 10° C | 49% | 1029 hPa | 0 mm | - | - | - |
| 1777573983 | 10.56° C | 48% | 1029 hPa | 0 mm | - | - | - |
| 1777573083 | 11.67° C | 41% | 1029 hPa | 0 mm | - | - | - |
| 1777572183 | 11.67° C | 46% | 1029 hPa | 0 mm | - | - | - |
| 1777571283 | 12.22° C | 46% | 1029 hPa | 0 mm | - | - | - |
| 1777570382 | 12.22° C | 45% | 1029 hPa | 0 mm | - | - | - |
| 1777569482 | 13.33° C | 37% | 1028 hPa | 0 mm | - | - | - |
* Rain latest hour (hover to see other rain measurements)
** Current wind speed in m/s (hover to see current wind gust speed)